SAUDICOMSAT 7

Last updated on July 6, 2021, 3:39 p.m. UTC

1 31119U 07012C   21186.82900254  .00000064  00000-0  21954-4 0  9998
2 31119  98.1414 131.9366 0061341  96.2061 264.6133 14.61873388758062
UTC
Height (km)
Latitude
Longitude
Inclination
Orbital Period
UTC large
Height (km)
Speed (km/s)
/
Latitude / Longitude
Inclination (degrees)
Orbital Period (minutes)
Azimuth
Elevation
Range (km)
Doppler Factor
iOS Compass Heading
iOS Angle